Meteo Giornale » Osservazioni meteo Grecia » Mikonos Island Mikonos
ore: 20:20 - Osservazioni Meteo Mikonos Island Mikonos
Lat. 37° 26' N Lon. 25° 20' E Alt. 123 metri s.l.m.
24 °C
Sereno
Temp. 24 Ore
23 °C
27 °C
Nord
24 Km/h
Dew point 21 °C
Umidità 83 %
Visibilità 10 Km
Il sole sorge alle ore 06:49
Il sole tramonta alle ore 19:48
| Data e Ora | Cielo e Fenomeni | T °C | DP °C | Um. % | Pres. hPa | Vis. km | Vento km/h | |
|---|---|---|---|---|---|---|---|---|
| Oggi h: 20:20 | Sereno | 24 | 21 | 83 | 1013 | 10 | N 24 | |
| Oggi h: 19:50 | Sereno | 24 | 22 | 88 | 1013 | 10 | N 29.6 | |
| Oggi h: 19:20 | Sereno | 25 | 22 | 83 | 1012 | 10 | N 33.3 | |
| Oggi h: 18:50 | Sereno | 25 | 21 | 78 | 1012 | 10 | N 31.5 | |
| Oggi h: 18:20 | Sereno | 26 | 22 | 78 | 1013 | 10 | N 33.3 | |
| Oggi h: 17:50 | Sereno | 26 | 22 | 78 | 1013 | 10 | N 35.2 | |
| Oggi h: 17:20 | Poco Nuvoloso | 26 | 22 | 78 | 1013 | 10 | N 35.2 | |
| Oggi h: 16:50 | Sereno | 27 | 22 | 74 | 1012 | 10 | N 37 | |
| Oggi h: 16:20 | Sereno | 27 | 21 | 69 | 1012 | 10 | N 33.3 | |
| Oggi h: 15:50 | Sereno | 27 | 19 | 61 | 1012 | 10 | N 35.2 | |
| Oggi h: 15:20 | Sereno | 27 | 20 | 65 | 1013 | 10 | N 35.2 | |
| Oggi h: 14:50 | Sereno | 27 | 19 | 61 | 1013 | 10 | N 37 | |
| Oggi h: 14:20 | Sereno | 27 | 19 | 61 | 1013 | 10 | N 38.8 | |
| Oggi h: 13:50 | Sereno | 27 | 19 | 61 | 1013 | 10 | N 40.7 | |
| Oggi h: 13:20 | Sereno | 27 | 20 | 65 | 1013 | 10 | N 38.8 | |
| Oggi h: 12:50 | Sereno | 27 | 19 | 61 | 1013 | 10 | N 38.8 | |
| Oggi h: 12:20 | Sereno | 27 | 21 | 69 | 1013 | 10 | N 38.8 | |
| Oggi h: 11:50 | Sereno | 26 | 22 | 78 | 1013 | 10 | N 38.8 | |
| Oggi h: 11:20 | Sereno | 26 | 21 | 73 | 1013 | 10 | N 37 | |
| Oggi h: 10:50 | Sereno | 26 | 21 | 73 | 1013 | 10 | N 37 | |
| Oggi h: 10:20 | Sereno | 26 | 21 | 73 | 1012 | 10 | N 35.2 | |
| Oggi h: 09:50 | Sereno | 25 | 20 | 73 | 1012 | 10 | N 40.7 | |
| Oggi h: 09:20 | Sereno | 25 | 20 | 73 | 1012 | 10 | N 35.2 | |
| Oggi h: 08:50 | Sereno | 25 | 20 | 73 | 1012 | 10 | N 38.8 | |
| Oggi h: 08:20 | Sereno | 24 | 21 | 83 | 1012 | 10 | N 35.2 | |
| Oggi h: 07:50 | Sereno | 24 | 21 | 83 | 1012 | 10 | N 37 | |
| Oggi h: 07:20 | Sereno | 23 | 21 | 88 | 1012 | 10 | N 33.3 | |
| Oggi h: 06:50 | Sereno | 23 | 21 | 88 | 1012 | 10 | N 29.6 | |
| Oggi h: 06:20 | Sereno | 23 | 20 | 83 | 1011 | 10 | N 31.5 | |
| Oggi h: 05:50 | Sereno | 23 | 20 | 83 | 1011 | 10 | N 25.9 | |
| Oggi h: 05:20 | Sereno | 24 | 20 | 78 | 1011 | 10 | N 24 | |
| Oggi h: 04:50 | Sereno | 24 | 21 | 83 | 1011 | 10 | N/NO 20.3 | |
| Oggi h: 04:20 | Sereno | 24 | 21 | 83 | 1011 | 10 | N 25.9 | |
| Oggi h: 03:50 | Sereno | 24 | 22 | 88 | 1012 | 10 | N 20.3 | |
| Oggi h: 03:20 | Sereno | 24 | 22 | 88 | 1012 | 10 | N 22.2 | |
| Oggi h: 02:50 | Sereno | 24 | 22 | 88 | 1012 | 10 | N/NO 20.3 | |
| Oggi h: 02:20 | Sereno | 24 | 21 | 83 | 1012 | 10 | N 16.7 | |
| Oggi h: 01:50 | Sereno | 24 | 20 | 78 | 1012 | 10 | N 22.2 | |
| Oggi h: 01:20 | Sereno | 24 | 20 | 78 | 1012 | 10 | N/NO 24 | |
| Oggi h: 00:50 | Sereno | 24 | 19 | 73 | 1012 | 10 | N 22.2 | |
| Oggi h: 00:20 | Sereno | 25 | 20 | 73 | 1012 | 10 | N 22.2 | |
| Ieri h: 23:50 | Sereno | 25 | 19 | 69 | 1012 | 10 | N 18.5 | |
| Ieri h: 23:20 | Sereno | 25 | 19 | 69 | 1013 | 10 | N/NO 22.2 | |
| Ieri h: 22:50 | Sereno | 25 | 19 | 69 | 1012 | 10 | N 24 | |
| Ieri h: 22:20 | Sereno | 25 | 20 | 73 | 1012 | 10 | N 20.3 | |
| Ieri h: 21:50 | Sereno | 25 | 18 | 65 | 1012 | 10 | N 25.9 | |
| Ieri h: 21:20 | Sereno | 25 | 18 | 65 | 1012 | 10 | N 31.5 | |
| Ieri h: 20:50 | Sereno | 25 | 19 | 69 | 1012 | 10 | N 37 | |



